Home   Weather   Peshawar   Past weeks

Flag for Pakistan Past Weather in Peshawar, Pakistan — Yesterday and Last 2 Weeks

Now
82 °F

Haze.


Feels Like: 85 °F
Forecast: 73 / 95 °F
Wind: 12 mph from Southwest

Location: Peshawar Airport

Current Time: Aug 31, 2016 at 1:54:54 AM

Latest Report: Aug 30, 2016 at 11:00 PM


Visibility: 2 mi

Pressure: 29.65 "Hg

Humidity: 62%

Dew Point: 68 °F

Location of PeshawarLocation

Past Weather in Peshawar — Graph

°F

Peshawar Temperature Yesterday

Maximum temperature yesterday: 91 °F (at 5:00 PM)
Minimum temperature yesterday: 77 °F (at 4:00 AM)
Average temperature yesterday: 85 °F

High & Low Weather Summary for the Past Weeks

 TemperatureHumidityPressure
High100 °F (Aug 19, 1:00 PM)94% (Aug 17, 3:00 AM)29.89 "Hg (Aug 17, 3:00 AM)
Low72 °F (Aug 17, 3:00 AM)37% (Aug 23, 3:00 PM)29.50 "Hg (Aug 16, 9:00 AM)
Average87 °F57%29.66 "Hg
* Reported Aug 15 11:00 PM — Aug 30 11:00 PM, Peshawar, Weather by CustomWeather, © 2016

Note: Actual official high and low records may vary slightly from our data, if they occured in-between our weather recording intervals... More about our weather records

Advertising

Peshawar Weather History for the Previous 24 Hours

Scroll right to see more
 ConditionsComfort  
Time TempWeatherWind HumidityBarometerVisibility
11:00 PM
Tue, Aug 30
82 °FHaze.12 mph62%29.65 "Hg2 mi
10:00 PM84 °FHaze.9 mph58%29.65 "Hg2 mi
9:00 PM84 °FPassing clouds.9 mph58%29.62 "Hg2 mi
8:00 PM86 °FPassing clouds.7 mph55%29.59 "Hg2 mi
7:00 PM88 °FPassing clouds.9 mph55%29.59 "Hg2 mi
6:00 PM90 °FScattered clouds.12 mph52%29.56 "Hg2 mi
5:00 PM91 °FScattered clouds.9 mph49%29.59 "Hg2 mi
3:59 PM90 °FBroken clouds.12 mph52%29.59 "Hg2 mi
3:30 PM90 °FBroken clouds.12 mph52%29.59 "Hg2 mi
2:59 PM90 °FBroken clouds.12 mph52%29.59 "Hg3 mi
1:59 PM90 °FBroken clouds.9 mph52%29.65 "Hg3 mi
1:30 PM90 °FBroken clouds.12 mph52%29.65 "Hg3 mi
1:00 PM90 °FBroken clouds.12 mph52%29.65 "Hg3 mi
12:30 PM90 °FScattered clouds.9 mph52%29.68 "Hg3 mi
12:00 PM90 °FHaze.9 mph52%29.68 "Hg3 mi
11:30 AM90 °FHaze.12 mph52%29.68 "Hg3 mi
11:00 AM90 °FHaze.12 mph52%29.68 "Hg3 mi
10:30 AM88 °FHaze.7 mph55%29.68 "Hg3 mi
10:00 AM88 °FHaze.7 mph55%29.68 "Hg3 mi
9:30 AM84 °FHaze.7 mph62%29.68 "Hg2 mi
9:00 AM84 °FHaze.7 mph62%29.68 "Hg2 mi
8:30 AM82 °FHaze.7 mph66%29.68 "Hg2 mi
8:00 AM82 °FHaze.7 mph66%29.68 "Hg2 mi
7:30 AM81 °FHaze.5 mph66%29.65 "Hg2 mi
7:00 AM81 °FHaze.5 mph66%29.65 "Hg2 mi
6:30 AM77 °FHaze.7 mph74%29.65 "Hg2 mi
6:00 AM77 °FHaze.7 mph74%29.65 "Hg2 mi
5:30 AM77 °FHaze.12 mph74%29.62 "Hg2 mi
5:00 AM77 °FHaze.12 mph74%29.62 "Hg2 mi
4:30 AM77 °FThundershowers. Passing clouds.7 mph69%29.62 "Hg2 mi
4:00 AM77 °FThundershowers. Passing clouds.7 mph69%29.62 "Hg2 mi
3:00 AM81 °FThundershowers. Partly cloudy.7 mph62%29.62 "Hg2 mi
2:00 AM82 °FThundershowers. Partly cloudy.7 mph58%29.65 "Hg2 mi
1:00 AM82 °FThundershowers. Passing clouds.7 mph58%29.65 "Hg2 mi
Weather by CustomWeather, © 2016

See weather overviewHow to use our weather pages